STARLINK-34747

Last updated on Wed Aug 27 2025 00:02:05 GMT+0000 (Coordinated Universal Time)

1 64947U 25158R 25237.91670139 .00081036 00000+0 20609-2 0 9992 2 64947 97.6035 100.5926 0002071 107.4222 273.7168 15.39300336 5971
UTC large
Height (km)
Speed (km/s)
/
Latitude / Longitude
Inclination (degrees)
Orbital Period (minutes)
Azimuth
Elevation
Range (km)
Doppler Factor

Next 0 passes for location: London (51.5072 / 0.1276)

Sorry there are no passes over London.